Date String (YYYY-MM-DD hh:mm:ss) UTC,Instrument flags,absolute air pressure of the measurement (hPa),sample flow rate (lpm),inlet stack bypass flow (lpm),air temperature of the measurement (°C),ambient temperature measured by the external sensor (°C),aerosol sample conditioner tube jacket temperature (°C),OPC LED temperature (°C),internal box temperature (°C),relative humidity of the measurement (%),span deviation,mass concentration of particles derived from Lorenz-Mie calculation of OPC scattering (μg/m³),mass concentration of particles derived from Lorenz-Mie calculation of OPC scattering (μg/m³),mass concentration of particles derived from Lorenz-Mie calculation of OPC scattering (μg/m³)
DateTimeUTC,F1_M11,P_M11,Q1_M11,Q2_M11,T1_M11,T2_M11,T3_M11,T4_M11,T5_M11,U1_M11,ZSPAN_M11,X0_M11,X2_M11,X1_M11
2024-06-14 04:00:00,SystemResetWarning,0833.7,5.01,000.00,029.2,028.8,000.0,037.3,031.1,029.3,0000.0,0040.05,0007.59,0004.54
2024-06-14 04:01:00,SystemResetWarning,0833.7,5.00,000.00,029.3,028.9,000.0,037.3,031.2,029.1,0000.0,0039.33,0007.54,0004.53
2024-06-14 04:02:00,SystemResetWarning,0833.8,5.00,000.00,029.4,029.0,000.0,037.3,031.3,029.0,0000.0,0038.60,0007.57,0004.53
2024-06-14 04:03:00,SystemResetWarning,0833.8,5.00,000.00,029.5,029.1,000.0,037.4,031.4,028.9,0000.0,0041.35,0007.49,0004.51
2024-06-14 04:04:00,SystemResetWarning,0833.8,4.99,000.00,029.5,029.2,000.0,037.4,031.4,028.7,0000.0,0042.31,0007.46,0004.50
2024-06-14 04:05:00,SystemResetWarning,0833.9,5.00,000.00,029.6,028.9,000.0,037.5,031.2,028.6,0000.0,0041.58,0007.39,0004.50
2024-06-14 04:06:00,SystemResetWarning,0833.9,5.00,000.00,029.3,026.7,000.0,037.6,030.3,029.1,0000.0,0038.85,0007.40,0004.50
2024-06-14 04:07:00,SystemResetWarning,0833.8,5.02,000.00,029.0,026.2,000.0,037.6,030.0,029.8,0000.0,0037.55,0007.38,0004.48
2024-06-14 04:08:00,SystemResetWarning,0833.9,5.00,000.00,028.9,026.6,000.0,037.5,030.1,029.9,0000.0,0038.78,0007.46,0004.49
2024-06-14 04:09:00,SystemResetWarning,0834.0,4.99,000.00,028.9,027.0,000.0,037.4,030.3,029.9,0000.0,0039.21,0007.54,0004.48
2024-06-14 04:10:00,SystemResetWarning,0834.0,5.00,000.00,029.0,027.4,000.0,037.4,030.6,029.8,0000.0,0040.79,0007.63,0004.48
2024-06-14 04:11:00,SystemResetWarning,0834.0,5.00,000.00,029.1,027.7,000.0,037.4,030.7,029.7,0000.0,0042.01,0007.66,0004.48
2024-06-14 04:12:00,SystemResetWarning,0834.0,5.01,000.00,029.1,028.0,000.0,037.4,030.9,029.6,0000.0,0041.31,0007.69,0004.48
2024-06-14 04:13:00,SystemResetWarning,0834.0,4.99,000.00,029.2,028.3,000.0,037.4,031.0,029.5,0000.0,0042.47,0007.70,0004.48
2024-06-14 04:14:00,SystemResetWarning,0834.0,5.00,000.00,029.3,028.5,000.0,037.4,031.1,029.4,0000.0,0040.63,0007.78,0004.49
2024-06-14 04:15:00,SystemResetWarning,0834.0,5.00,000.00,029.3,028.7,000.0,037.4,031.2,029.3,0000.0,0041.30,0007.84,0004.49
2024-06-14 04:16:00,SystemResetWarning,0834.0,5.00,000.00,029.4,028.9,000.0,037.5,031.3,029.1,0000.0,0043.30,0007.92,0004.49
2024-06-14 04:17:00,SystemResetWarning,0834.0,5.00,000.00,029.5,029.0,000.0,037.5,031.3,028.9,0000.0,0045.59,0007.94,0004.49
2024-06-14 04:18:00,SystemResetWarning,0834.0,4.99,000.00,029.5,029.1,000.0,037.5,031.4,028.8,0000.0,0048.43,0008.02,0004.48
2024-06-14 04:19:00,SystemResetWarning,0834.0,4.99,000.00,029.6,029.2,000.0,037.6,031.4,028.7,0000.0,0048.97,0008.10,0004.47
2024-06-14 04:20:00,SystemResetWarning,0834.0,4.99,000.00,029.5,027.5,000.0,037.7,030.6,028.9,0000.0,0049.75,0008.15,0004.48
2024-06-14 04:21:00,SystemResetWarning,0834.0,5.03,000.00,029.1,026.3,000.0,037.7,030.0,029.5,0000.0,0047.16,0008.14,0004.47
2024-06-14 04:22:00,SystemResetWarning,0833.9,5.00,000.00,029.0,026.5,000.0,037.7,030.1,029.6,0000.0,0045.83,0008.22,0004.47
2024-06-14 04:23:00,SystemResetWarning,0834.0,5.00,000.00,029.0,026.9,000.0,037.6,030.2,029.7,0000.0,0047.99,0008.28,0004.46
2024-06-14 04:24:00,SystemResetWarning,0834.0,5.00,000.00,029.0,027.3,000.0,037.5,030.5,029.6,0000.0,0049.46,0008.33,0004.46
2024-06-14 04:25:00,SystemResetWarning,0834.1,4.99,000.00,029.1,027.6,000.0,037.5,030.7,029.5,0000.0,0051.54,0008.43,0004.46
2024-06-14 04:26:00,SystemResetWarning,0834.0,4.99,000.00,029.1,028.0,000.0,037.5,030.9,029.3,0000.0,0051.49,0008.42,0004.45
2024-06-14 04:27:00,SystemResetWarning,0834.0,5.00,000.00,029.2,028.2,000.0,037.5,031.0,029.2,0000.0,0050.50,0008.38,0004.45
2024-06-14 04:28:00,SystemResetWarning,0834.0,5.01,000.00,029.3,028.5,000.0,037.5,031.1,029.0,0000.0,0051.04,0008.37,0004.45
2024-06-14 04:29:00,SystemResetWarning,0834.0,5.00,000.00,029.3,028.7,000.0,037.5,031.2,028.9,0000.0,0049.86,0008.31,0004.44
2024-06-14 04:30:00,SystemResetWarning,0833.9,5.01,000.00,029.4,028.8,000.0,037.5,031.3,028.7,0000.0,0051.16,0008.35,0004.44
2024-06-14 04:31:00,SystemResetWarning,0833.9,5.00,000.00,029.5,029.0,000.0,037.5,031.4,028.6,0000.0,0051.45,0008.37,0004.43
2024-06-14 04:32:00,SystemResetWarning,0834.0,5.00,000.00,029.6,029.1,000.0,037.6,031.4,028.5,0000.0,0052.43,0008.40,0004.43
2024-06-14 04:33:00,SystemResetWarning,0834.0,4.99,000.00,029.6,029.2,000.0,037.6,031.5,028.3,0000.0,0051.19,0008.37,0004.42
2024-06-14 04:34:00,SystemResetWarning,0834.0,4.99,000.00,029.7,029.2,000.0,037.7,031.5,028.1,0000.0,0050.00,0008.42,0004.43
2024-06-14 04:35:00,SystemResetWarning,0833.9,5.00,000.00,029.5,027.5,000.0,037.8,030.7,028.3,0000.0,0049.17,0008.39,0004.42
2024-06-14 04:36:00,SystemResetWarning,0833.9,5.02,000.00,029.2,026.4,000.0,037.8,030.1,028.9,0000.0,0048.68,0008.40,0004.41
2024-06-14 04:37:00,SystemResetWarning,0833.9,5.00,000.00,029.1,026.6,000.0,037.7,030.1,029.3,0000.0,0050.17,0008.47,0004.41
2024-06-14 04:38:00,SystemResetWarning,0833.9,5.00,000.00,029.1,027.0,000.0,037.6,030.3,029.4,0000.0,0049.99,0008.55,0004.42
2024-06-14 04:39:00,SystemResetWarning,0833.9,5.00,000.00,029.1,027.4,000.0,037.6,030.6,029.4,0000.0,0047.78,0008.63,0004.43
2024-06-14 04:40:00,SystemResetWarning,0833.9,5.00,000.00,029.1,027.7,000.0,037.5,030.8,029.3,0000.0,0048.76,0008.68,0004.46
2024-06-14 04:41:00,SystemResetWarning,0834.0,5.00,000.00,029.2,028.1,000.0,037.5,030.9,029.1,0000.0,0047.37,0008.66,0004.48
2024-06-14 04:42:00,SystemResetWarning,0833.9,4.98,000.00,029.3,028.3,000.0,037.5,031.0,029.0,0000.0,0046.52,0008.65,0004.48
2024-06-14 04:43:00,SystemResetWarning,0833.9,4.99,000.00,029.3,028.5,000.0,037.5,031.2,028.9,0000.0,0049.21,0008.70,0004.49
2024-06-14 04:44:00,SystemResetWarning,0834.0,5.01,000.00,029.4,028.7,000.0,037.5,031.2,028.7,0000.0,0050.35,0008.79,0004.49
2024-06-14 04:45:00,SystemResetWarning,0834.1,5.02,000.00,029.5,028.9,000.0,037.6,031.3,028.6,0000.0,0050.71,0008.80,0004.49
2024-06-14 04:46:00,SystemResetWarning,0834.1,5.00,000.00,029.6,029.0,000.0,037.6,031.4,028.4,0000.0,0051.98,0008.85,0004.49
2024-06-14 04:47:00,SystemResetWarning,0834.2,5.00,000.00,029.6,029.2,000.0,037.7,031.5,028.3,0000.0,0053.41,0008.78,0004.49
2024-06-14 04:48:00,SystemResetWarning,0834.2,5.00,000.00,029.7,029.3,000.0,037.7,031.6,028.3,0000.0,0052.36,0008.75,0004.48
2024-06-14 04:49:00,SystemResetWarning,0834.3,4.98,000.00,029.7,028.3,000.0,037.8,031.1,028.2,0000.0,0052.49,0008.72,0004.47
2024-06-14 04:50:00,SystemResetWarning,0834.2,5.00,000.00,029.3,025.9,000.0,037.8,030.0,028.9,0000.0,0053.36,0008.76,0004.47
2024-06-14 04:51:00,SystemResetWarning,0834.2,5.01,000.00,028.9,025.1,000.0,037.8,029.5,029.7,0000.0,0052.51,0008.86,0004.46
2024-06-14 04:52:00,SystemResetWarning,0834.2,5.01,000.00,028.7,025.6,000.0,037.7,029.6,029.9,0000.0,0055.05,0008.91,0004.44
2024-06-14 04:53:00,SystemResetWarning,0834.3,4.99,000.00,028.7,026.1,000.0,037.5,029.9,030.1,0000.0,0057.40,0008.98,0004.44
2024-06-14 04:54:00,SystemResetWarning,0834.4,4.99,000.00,028.7,026.6,000.0,037.4,030.1,030.0,0000.0,0058.00,0009.06,0004.44
2024-06-14 04:55:00,SystemResetWarning,0834.4,5.01,000.00,028.8,027.0,000.0,037.4,030.3,029.9,0000.0,0059.75,0009.04,0004.44
2024-06-14 04:56:00,SystemResetWarning,0834.3,5.00,000.00,028.8,027.4,000.0,037.3,030.5,029.8,0000.0,0060.78,0009.03,0004.43
2024-06-14 04:57:00,SystemResetWarning,0834.2,5.00,000.00,028.9,027.8,000.0,037.3,030.6,029.7,0000.0,0061.39,0009.05,0004.42
2024-06-14 04:58:00,SystemResetWarning,0834.2,5.00,000.00,029.0,028.0,000.0,037.3,030.8,029.8,0000.0,0062.73,0009.07,0004.42
2024-06-14 04:59:00,SystemResetWarning,0834.2,5.00,000.00,029.1,028.3,000.0,037.3,030.9,029.7,0000.0,0063.48,0009.08,0004.42
